Weather in Yarkent

Kazakhstan     44°10′09″N   80°00′13″E
temp.,
°C
wind,
m/s
gust,
m/s
humid.,
%
clouds,
%
prec.,
mm/h
press.,
hPa
HPBL,
m
13 april, tue
tue1300:00+13wnw11310 0.0 102013
03:00+11n11353 0.0 102010
06:00+10w12352 0.0 102011
09:00+15ssw11260 0.0 1021306
12:00+18s22190 0.0 1019945
15:00+21sw43180 0.0 10171642
18:00+20sw45180 0.0 10171510
21:00+16w23270 0.0 102047
14 april, wed
wed1400:00+15e33310 0.0 102134
03:00+12ene46340 0.0 102196
06:00+11ene34350 0.0 102255
09:00+16e342711 0.0 1022598
12:00+19se33244 0.0 10201345
15:00+21se23187 0.0 10182045
18:00+21se331680 0.0 10161878
21:00+17ene222324 0.0 101715
15 april, thu
thu1500:00+16nne322461 0.0 101615
03:00+14n322788 0.0 101619
06:00+12n222798 0.0 101611
09:00+18sse11165 0.0 1016519
12:00+21se331219 0.0 10141553
15:00+23sse22100 0.0 10122128
18:00+23s22101 0.0 10121807
21:00+18ne11172 0.0 101311
16 april, fri
fri1600:00+16ne11200 0.0 101212
03:00+14nne112371 0.0 101111
06:00+13ne222217 0.0 101211
09:00+19sse01166 0.0 1012365
12:00+22se221698 0.0 10101386
15:00+24sse1114100 0.0 10081526
18:00+24wsw1214100 0.0 10081043
21:00+21wsw3522100 0.0 1010111
17 april, sat
sat1700:00+19s1229100 0.0 101051
03:00+17ssw3441100 0.0 1011148
06:00+14e2357100 0.0 101258
09:00+17ese444496 0.0 1012591
12:00+21ese2233100 0.0 10111362
15:00+23wnw3522100 0.0 10092499
18:00+22sw6523100 0.0 10081720
21:00+19sw3732100 0.0 1009181